Location: Saint-Denis
(20.8800°S, 55.4481°E)
Time: 19:08:39
(UTC+04:00)

Hubble Space Telescope - Pass Details

Date: 12 February 2023
Orbit: 527 x 530 km, 28.5° (Epoch: 25 March)

Event Time Altitude Azimuth Distance (km) Brightness Sun altitude
Exits shadow 05:27:15 - 330° (NNW) 2,055 3.3 -9.8°
Reaches altitude 10° 05:28:10 10° 336° (NNW) 1,763 3.0 -9.6°
Maximum altitude 05:31:23 23° 29° (NNE) 1,168 2.6 -8.8°
Drops below altitude 10° 05:34:38 10° 81° (E) 1,776 4.6 -8.1°
Sets 05:37:15 0° 96° (E) 2,670 6.3 -7.5°
